Location: Conflandey
(47.7287°N, 6.0456°E)
Time: 03:28:33
(UTC+00:00)

SL-08 RB Rocket - Pass Details

Date: 24 October 2021
Orbit: 646 x 684 km, 97.8° (Epoch: 05 December)

Event Time Altitude Azimuth Distance (km) Brightness Sun altitude
Rises 18:11:59 0° 166° (SSE) 2,984 6.9 -17.6°
Reaches altitude 10° 18:14:11 10° 167° (SSE) 2,083 6.1 -18.0°
Maximum altitude 18:18:45 85° 257° (WSW) 680 3.7 -18.7°
Drops below altitude 10° 18:23:24 10° 346° (NNW) 2,122 6.5 -19.5°
Sets 18:25:40 0° 347° (NNW) 3,047 7.3 -19.9°
